QPF
0.00 0.00 0.01 0.02 0.02 0.02 0.02 0.02 0.01 0.01 0.01 0.00 0.00 0.00 0.00 0.00 0.00 0.00 0.00 0.00 0.00 0.01 0.01 0.01 0.01 0.00 0.00 0.00 0.00 0.00 0.00 0.01 0.01 0.01 0.02 0.02 0.03 0.05 0.07 0.10 0.08 0.06 0.04
0.00 0.00 0.01 0.02 0.02 0.02 0.01 0.01 0.01 0.01 0.00 0.00 0.00 0.00 0.00 0.00 0.00 0.00 0.00 0.00 0.00 0.01 0.01 0.01 0.00 0.00 0.00 0.00 0.00 0.00 0.00 0.01 0.01 0.02 0.02 0.03 0.04 0.06 0.05 0.06 0.06 0.05 0.03
0.00 0.01 0.01 0.02 0.02 0.02 0.02 0.01 0.01 0.00 0.00 0.00 0.00 0.00 0.00 0.00 0.00 0.00 0.00 0.01 0.01 0.01 0.01 0.00 0.01 0.01 0.01 0.01 0.00 0.00 0.00 0.01 0.02 0.03 0.03 0.05 0.03 0.04 0.04 0.03 0.03 0.02 0.02
0.00 0.00 0.00 0.02 0.03 0.02 0.02 0.02 0.01 0.00 0.00 0.00 0.00 0.00 0.00 0.00 0.00 0.00 0.00 0.01 0.01 0.01 0.01 0.01 0.01 0.01 0.01 0.01 0.01 0.01 0.01 0.02 0.02 0.01 0.02 0.03 0.02 0.02 0.03 0.03 0.03 0.02 0.03
0.00 0.00 0.00 0.01 0.03 0.03 0.03 0.02 0.01 0.00 0.00 0.00 0.00 0.00 0.00 0.00 0.00 0.01 0.01 0.01 0.01 0.01 0.01 0.01 0.01 0.01 0.00 0.01 0.01 0.01 0.02 0.03 0.02 0.01 0.02 0.03 0.05 0.03 0.04 0.05 0.05 0.04 0.04
0.00 0.00 0.01 0.03 0.03 0.04 0.04 0.03 0.02 0.01 0.00 0.00 0.00 0.00 0.00 0.00 0.00 0.01 0.01 0.01 0.01 0.01 0.01 0.01 0.01 0.01 0.01 0.01 0.01 0.01 0.02 0.03 0.03 0.03 0.02 0.02 0.04 0.03 0.03 0.04 0.05 0.04 0.03
0.01 0.01 0.02 0.04 0.05 0.04 0.04 0.03 0.02 0.01 0.01 0.00 0.00 0.00 0.00 0.01 0.01 0.01 0.01 0.01 0.01 0.01 0.01 0.01 0.01 0.01 0.01 0.01 0.01 0.02 0.03 0.04 0.03 0.02 0.02 0.03 0.04 0.02 0.03 0.04 0.04 0.02 0.02
0.01 0.02 0.03 0.04 0.04 0.04 0.04 0.03 0.02 0.01 0.01 0.01 0.01 0.01 0.01 0.01 0.01 0.02 0.02 0.01 0.01 0.01 0.01 0.01 0.01 0.01 0.01 0.01 0.01 0.02 0.03 0.03 0.02 0.01 0.01 0.03 0.02 0.02 0.04 0.04 0.03 0.02 0.01
0.01 0.01 0.02 0.03 0.03 0.04 0.04 0.04 0.03 0.02 0.01 0.01 0.01 0.01 0.01 0.01 0.02 0.02 0.02 0.02 0.01 0.01 0.02 0.02 0.02 0.02 0.01 0.01 0.01 0.01 0.02 0.03 0.03 0.03 0.02 0.04 0.02 0.02 0.04 0.04 0.04 0.02 0.01
0.02 0.02 0.03 0.03 0.03 0.03 0.03 0.03 0.03 0.02 0.01 0.01 0.01 0.01 0.01 0.01 0.02 0.02 0.02 0.02 0.02 0.02 0.02 0.03 0.04 0.03 0.02 0.02 0.01 0.02 0.02 0.02 0.02 0.02 0.04 0.03 0.02 0.03 0.04 0.04 0.04 0.03 0.03
0.03 0.04 0.04 0.04 0.03 0.03 0.03 0.02 0.02 0.02 0.02 0.02 0.02 0.02 0.02 0.03 0.04 0.04 0.03 0.02 0.03 0.04 0.05 0.06 0.05 0.04 0.04 0.02 0.02 0.02 0.01 0.01 0.01 0.02 0.05 0.04 0.03 0.06 0.08 0.06 0.04 0.04 0.03
0.02 0.02 0.03 0.03 0.03 0.03 0.02 0.03 0.04 0.04 0.04 0.04 0.05 0.05 0.06 0.06 0.06 0.04 0.03 0.04 0.05 0.06 0.07 0.07 0.06 0.04 0.04 0.04 0.03 0.02 0.01 0.01 0.00 0.01 0.03 0.03 0.06 0.08 0.10 0.10 0.08 0.05 0.03
0.02 0.01 0.01 0.03 0.03 0.03 0.04 0.04 0.05 0.07 0.07 0.06 0.06 0.07 0.07 0.06 0.06 0.06 0.06 0.06 0.05 0.06 0.07 0.06 0.04 0.05 0.06 0.06 0.05 0.03 0.02 0.01 0.01 0.01 0.02 0.03 0.06 0.09 0.13 0.13 0.11 0.08 0.06
0.05 0.03 0.02 0.02 0.03 0.04 0.05 0.06 0.07 0.07 0.08 0.08 0.08 0.07 0.07 0.07 0.06 0.06 0.05 0.06 0.06 0.07 0.08 0.07 0.07 0.06 0.06 0.06 0.06 0.05 0.03 0.03 0.02 0.02 0.03 0.03 0.04 0.09 0.15 0.18 0.17 0.14 0.10
0.05 0.04 0.03 0.04 0.05 0.07 0.09 0.08 0.08 0.10 0.11 0.11 0.09 0.08 0.08 0.07 0.06 0.05 0.04 0.04 0.04 0.03 0.04 0.04 0.05 0.05 0.05 0.05 0.06 0.05 0.04 0.04 0.05 0.04 0.03 0.03 0.04 0.07 0.13 0.18 0.21 0.20 0.17
0.08 0.06 0.05 0.06 0.07 0.11 0.13 0.12 0.13 0.14 0.12 0.10 0.09 0.09 0.08 0.07 0.05 0.03 0.03 0.03 0.02 0.02 0.02 0.02 0.03 0.03 0.04 0.04 0.04 0.03 0.03 0.04 0.04 0.04 0.04 0.05 0.05 0.05 0.09 0.14 0.19 0.21 0.18
0.12 0.11 0.08 0.07 0.09 0.12 0.14 0.14 0.15 0.15 0.10 0.08 0.09 0.10 0.08 0.05 0.03 0.02 0.02 0.01 0.01 0.01 0.01 0.01 0.01 0.01 0.01 0.01 0.02 0.02 0.03 0.03 0.03 0.03 0.03 0.04 0.04 0.04 0.06 0.09 0.14 0.18 0.20
0.18 0.18 0.14 0.09 0.11 0.13 0.14 0.13 0.12 0.10 0.08 0.07 0.08 0.08 0.06 0.03 0.02 0.01 0.01 0.01 0.00 0.00 0.00 0.00 0.00 0.00 0.00 0.00 0.00 0.00 0.00 0.01 0.01 0.02 0.03 0.03 0.05 0.04 0.05 0.06 0.10 0.12 0.14
0.23 0.26 0.19 0.16 0.16 0.16 0.15 0.11 0.09 0.07 0.06 0.06 0.06 0.05 0.03 0.01 0.01 0.01 0.01 0.00 0.00 0.00 0.00 0.00 0.00 0.00 0.00 0.00 0.00 0.00 0.00 0.00 0.00 0.01 0.01 0.03 0.04 0.05 0.06 0.06 0.06 0.08 0.12
0.20 0.24 0.19 0.18 0.17 0.15 0.12 0.07 0.06 0.06 0.05 0.04 0.04 0.03 0.02 0.01 0.00 0.00 0.00 0.00 0.00 0.00 0.00 0.00 0.00 0.00 0.00 0.00 0.00 0.00 0.00 0.00 0.00 0.00 0.00 0.01 0.02 0.03 0.05 0.07 0.09 0.09 0.10
0.14 0.15 0.15 0.17 0.15 0.13 0.09 0.06 0.04 0.03 0.03 0.03 0.03 0.02 0.01 0.00 0.00 0.00 0.00 0.00 0.00 0.00 0.00 0.00 0.00 0.00 0.00 0.00 0.00 0.00 0.00 0.00 0.00 0.00 0.00 0.00 0.00 0.01 0.02 0.04 0.07 0.09 0.12
0.13 0.11 0.12 0.13 0.12 0.10 0.09 0.07 0.03 0.02 0.02 0.02 0.01 0.01 0.00 0.00 0.00 0.00 0.00 0.00 0.00 0.00 0.00 0.00 0.00 0.00 0.00 0.00 0.00 0.00 0.00 0.00 0.00 0.00 0.00 0.00 0.00 0.00 0.01 0.02 0.04 0.06 0.09
0.11 0.09 0.09 0.10 0.08 0.07 0.06 0.04 0.02 0.02 0.01 0.01 0.01 0.00 0.00 0.00 0.00 0.00 0.00 0.00 0.00 0.00 0.00 0.00 0.00 0.00 0.00 0.00 0.00 0.00 0.00 0.00 0.00 0.00 0.00 0.00 0.00 0.00 0.01 0.01 0.01 0.03 0.04
0.08 0.06 0.07 0.08 0.06 0.05 0.03 0.02 0.03 0.02 0.02 0.01 0.00 0.00 0.00 0.00 0.00 0.00 0.00 0.00 0.00 0.00 0.00 0.00 0.00 0.00 0.00 0.00 0.00 0.00 0.00 0.00 0.00 0.00 0.00 0.00 0.00 0.00 0.00 0.00 0.01 0.01 0.02
0.04 0.04 0.05 0.07 0.06 0.04 0.02 0.02 0.03 0.01 0.01 0.00 0.00 0.00 0.00 0.00 0.00 0.00 0.00 0.00 0.00 0.00 0.00 0.00 0.00 0.00 0.00 0.00 0.00 0.00 0.00 0.00 0.00 0.00 0.00 0.00 0.00 0.00 0.00 0.00 0.00 0.00 0.01
0.03 0.03 0.03 0.05 0.04 0.02 0.01 0.01 0.01 0.01 0.01 0.00 0.00 0.00 0.00 0.00 0.00 0.00 0.00 0.00 0.00 0.00 0.00 0.00 0.00 0.00 0.00 0.00 0.00 0.00 0.00 0.00 0.00 0.00 0.00 0.00 0.00 0.00 0.00 0.00 0.00 0.00 0.00
MSLP
1013.22 1013.35 1013.66 1014.11 1014.62 1015.09 1015.47 1015.71 1015.83 1015.85 1015.84 1015.87 1015.98 1016.19 1016.48 1016.81 1017.13 1017.38 1017.53 1017.57 1017.53 1017.45 1017.36 1017.32 1017.33 1017.39 1017.48 1017.56 1017.62 1017.62 1017.59 1017.52 1017.46 1017.43 1017.45 1017.53 1017.66 1017.83 1018.01 1018.19 1018.34 1018.48 1018.59
1012.91 1013.17 1013.62 1014.20 1014.81 1015.36 1015.78 1016.04 1016.16 1016.16 1016.13 1016.14 1016.23 1016.43 1016.72 1017.05 1017.36 1017.60 1017.73 1017.76 1017.71 1017.62 1017.55 1017.53 1017.57 1017.66 1017.78 1017.89 1017.95 1017.95 1017.89 1017.80 1017.71 1017.66 1017.67 1017.76 1017.91 1018.11 1018.32 1018.52 1018.68 1018.82 1018.92
1012.58 1012.97 1013.54 1014.23 1014.94 1015.57 1016.06 1016.37 1016.50 1016.53 1016.50 1016.51 1016.59 1016.78 1017.04 1017.34 1017.61 1017.81 1017.91 1017.91 1017.84 1017.77 1017.72 1017.73 1017.81 1017.94 1018.09 1018.20 1018.25 1018.23 1018.14 1018.01 1017.89 1017.82 1017.83 1017.92 1018.09 1018.31 1018.55 1018.77 1018.95 1019.09 1019.19
1012.29 1012.77 1013.44 1014.22 1015.01 1015.72 1016.28 1016.64 1016.83 1016.89 1016.89 1016.91 1017.00 1017.17 1017.40 1017.65 1017.87 1018.02 1018.07 1018.05 1017.98 1017.91 1017.89 1017.94 1018.06 1018.22 1018.38 1018.50 1018.53 1018.47 1018.34 1018.18 1018.03 1017.93 1017.94 1018.04 1018.23 1018.47 1018.73 1018.97 1019.16 1019.31 1019.42
1012.09 1012.64 1013.36 1014.20 1015.04 1015.80 1016.41 1016.83 1017.07 1017.18 1017.23 1017.29 1017.39 1017.55 1017.75 1017.96 1018.12 1018.22 1018.23 1018.19 1018.12 1018.08 1018.09 1018.17 1018.32 1018.51 1018.66 1018.76 1018.76 1018.66 1018.49 1018.29 1018.12 1018.02 1018.03 1018.15 1018.36 1018.62 1018.91 1019.16 1019.37 1019.53 1019.66
1012.05 1012.61 1013.35 1014.19 1015.04 1015.82 1016.45 1016.90 1017.20 1017.36 1017.47 1017.56 1017.69 1017.85 1018.03 1018.21 1018.34 1018.40 1018.40 1018.34 1018.28 1018.26 1018.30 1018.42 1018.59 1018.77 1018.91 1018.98 1018.94 1018.80 1018.59 1018.37 1018.19 1018.10 1018.14 1018.28 1018.52 1018.82 1019.11 1019.39 1019.60 1019.77 1019.91
1012.17 1012.71 1013.41 1014.22 1015.03 1015.78 1016.40 1016.87 1017.19 1017.41 1017.56 1017.71 1017.86 1018.05 1018.23 1018.40 1018.51 1018.56 1018.55 1018.50 1018.46 1018.46 1018.53 1018.66 1018.83 1018.99 1019.11 1019.13 1019.05 1018.87 1018.65 1018.42 1018.25 1018.19 1018.27 1018.46 1018.73 1019.05 1019.37 1019.65 1019.87 1020.03 1020.16
1012.44 1012.93 1013.57 1014.29 1015.03 1015.72 1016.30 1016.75 1017.08 1017.33 1017.53 1017.72 1017.93 1018.14 1018.35 1018.52 1018.64 1018.69 1018.68 1018.65 1018.63 1018.65 1018.72 1018.85 1019.01 1019.14 1019.22 1019.19 1019.07 1018.87 1018.64 1018.42 1018.29 1018.28 1018.41 1018.65 1018.98 1019.33 1019.66 1019.94 1020.15 1020.30 1020.42
1012.83 1013.24 1013.79 1014.42 1015.06 1015.66 1016.17 1016.59 1016.91 1017.18 1017.42 1017.66 1017.91 1018.16 1018.40 1018.59 1018.72 1018.79 1018.79 1018.78 1018.76 1018.79 1018.86 1018.97 1019.10 1019.19 1019.22 1019.16 1019.01 1018.79 1018.57 1018.39 1018.31 1018.36 1018.55 1018.85 1019.22 1019.60 1019.94 1020.22 1020.41 1020.54 1020.63
1013.25 1013.60 1014.06 1014.58 1015.11 1015.62 1016.06 1016.43 1016.74 1017.02 1017.29 1017.57 1017.86 1018.16 1018.42 1018.65 1018.79 1018.87 1018.89 1018.87 1018.86 1018.87 1018.92 1019.01 1019.09 1019.14 1019.12 1019.03 1018.86 1018.65 1018.45 1018.32 1018.29 1018.41 1018.66 1019.01 1019.42 1019.82 1020.17 1020.43 1020.61 1020.71 1020.78
1013.65 1013.94 1014.32 1014.76 1015.20 1015.62 1015.99 1016.32 1016.61 1016.90 1017.20 1017.51 1017.84 1018.17 1018.47 1018.71 1018.87 1018.95 1018.96 1018.94 1018.91 1018.90 1018.91 1018.95 1018.99 1019.00 1018.96 1018.84 1018.67 1018.47 1018.31 1018.22 1018.24 1018.41 1018.72 1019.11 1019.54 1019.96 1020.32 1020.57 1020.73 1020.81 1020.85
1013.95 1014.22 1014.55 1014.92 1015.30 1015.66 1015.98 1016.28 1016.57 1016.86 1017.17 1017.53 1017.89 1018.25 1018.57 1018.82 1018.98 1019.05 1019.05 1019.00 1018.93 1018.88 1018.85 1018.85 1018.85 1018.82 1018.75 1018.64 1018.47 1018.30 1018.17 1018.12 1018.19 1018.40 1018.73 1019.14 1019.59 1020.01 1020.36 1020.61 1020.76 1020.84 1020.86
1014.13 1014.40 1014.71 1015.05 1015.40 1015.72 1016.02 1016.30 1016.59 1016.90 1017.24 1017.61 1018.01 1018.39 1018.72 1018.98 1019.14 1019.19 1019.16 1019.07 1018.97 1018.86 1018.79 1018.74 1018.70 1018.65 1018.58 1018.46 1018.32 1018.18 1018.09 1018.06 1018.16 1018.38 1018.71 1019.11 1019.55 1019.96 1020.31 1020.56 1020.72 1020.79 1020.83
1014.19 1014.47 1014.80 1015.14 1015.47 1015.79 1016.08 1016.37 1016.67 1016.99 1017.36 1017.76 1018.17 1018.57 1018.92 1019.18 1019.33 1019.37 1019.31 1019.19 1019.03 1018.89 1018.76 1018.67 1018.60 1018.54 1018.47 1018.37 1018.26 1018.15 1018.08 1018.07 1018.16 1018.37 1018.68 1019.05 1019.46 1019.85 1020.18 1020.44 1020.60 1020.70 1020.76
1014.16 1014.48 1014.82 1015.18 1015.52 1015.85 1016.16 1016.46 1016.78 1017.12 1017.51 1017.93 1018.36 1018.78 1019.13 1019.40 1019.55 1019.58 1019.51 1019.35 1019.17 1018.98 1018.82 1018.69 1018.60 1018.53 1018.47 1018.39 1018.30 1018.22 1018.17 1018.16 1018.24 1018.41 1018.67 1018.99 1019.35 1019.70 1020.01 1020.27 1020.45 1020.57 1020.66
1014.11 1014.45 1014.82 1015.20 1015.56 1015.90 1016.23 1016.55 1016.89 1017.25 1017.65 1018.08 1018.53 1018.96 1019.33 1019.61 1019.78 1019.82 1019.74 1019.58 1019.37 1019.16 1018.97 1018.82 1018.71 1018.64 1018.58 1018.53 1018.47 1018.40 1018.35 1018.34 1018.39 1018.50 1018.70 1018.95 1019.24 1019.54 1019.82 1020.06 1020.25 1020.40 1020.53
1014.09 1014.45 1014.83 1015.22 1015.60 1015.96 1016.30 1016.64 1016.98 1017.35 1017.76 1018.20 1018.65 1019.09 1019.48 1019.78 1019.97 1020.04 1019.99 1019.84 1019.64 1019.42 1019.22 1019.05 1018.93 1018.85 1018.80 1018.76 1018.72 1018.66 1018.61 1018.58 1018.59 1018.65 1018.76 1018.93 1019.15 1019.38 1019.61 1019.83 1020.02 1020.19 1020.33
1014.15 1014.51 1014.90 1015.28 1015.67 1016.04 1016.39 1016.74 1017.08 1017.45 1017.84 1018.27 1018.72 1019.16 1019.57 1019.90 1020.13 1020.24 1020.23 1020.12 1019.95 1019.74 1019.53 1019.36 1019.23 1019.14 1019.09 1019.05 1019.02 1018.97 1018.91 1018.86 1018.83 1018.82 1018.86 1018.95 1019.08 1019.24 1019.42 1019.60 1019.77 1019.93 1020.08
1014.31 1014.66 1015.03 1015.41 1015.80 1016.17 1016.52 1016.86 1017.20 1017.55 1017.92 1018.32 1018.74 1019.18 1019.59 1019.95 1020.22 1020.39 1020.44 1020.39 1020.25 1020.07 1019.88 1019.71 1019.57 1019.47 1019.41 1019.37 1019.33 1019.28 1019.22 1019.15 1019.08 1019.02 1018.99 1018.99 1019.04 1019.13 1019.24 1019.36 1019.50 1019.63 1019.77
1014.54 1014.88 1015.23 1015.60 1015.98 1016.35 1016.71 1017.04 1017.35 1017.67 1018.00 1018.36 1018.74 1019.15 1019.56 1019.93 1020.25 1020.47 1020.59 1020.60 1020.53 1020.39 1020.23 1020.06 1019.92 1019.81 1019.73 1019.68 1019.64 1019.58 1019.51 1019.42 1019.32 1019.22 1019.13 1019.07 1019.04 1019.05 1019.09 1019.16 1019.24 1019.34 1019.44
1014.81 1015.12 1015.46 1015.83 1016.21 1016.58 1016.93 1017.25 1017.55 1017.83 1018.11 1018.41 1018.73 1019.10 1019.48 1019.86 1020.20 1020.47 1020.66 1020.75 1020.74 1020.66 1020.53 1020.39 1020.24 1020.13 1020.04 1019.97 1019.92 1019.86 1019.78 1019.68 1019.56 1019.42 1019.29 1019.18 1019.09 1019.03 1019.00 1019.00 1019.03 1019.08 1019.14
1015.03 1015.34 1015.67 1016.04 1016.43 1016.81 1017.17 1017.49 1017.77 1018.01 1018.23 1018.46 1018.72 1019.03 1019.37 1019.73 1020.09 1020.41 1020.66 1020.82 1020.88 1020.86 1020.78 1020.66 1020.53 1020.41 1020.32 1020.24 1020.17 1020.10 1020.02 1019.92 1019.79 1019.64 1019.48 1019.32 1019.18 1019.07 1018.98 1018.93 1018.90 1018.90 1018.91
1015.15 1015.46 1015.80 1016.19 1016.59 1017.00 1017.38 1017.70 1017.97 1018.18 1018.35 1018.52 1018.71 1018.94 1019.23 1019.57 1019.92 1020.27 1020.57 1020.80 1020.93 1020.98 1020.96 1020.88 1020.77 1020.66 1020.55 1020.47 1020.40 1020.33 1020.25 1020.15 1020.01 1019.85 1019.68 1019.50 1019.33 1019.17 1019.04 1018.94 1018.87 1018.82 1018.79
1015.10 1015.43 1015.80 1016.21 1016.65 1017.09 1017.49 1017.83 1018.10 1018.29 1018.42 1018.54 1018.66 1018.84 1019.08 1019.37 1019.72 1020.08 1020.42 1020.70 1020.90 1021.02 1021.05 1021.01 1020.93 1020.84 1020.75 1020.67 1020.60 1020.53 1020.45 1020.35 1020.23 1020.08 1019.90 1019.71 1019.51 1019.33 1019.17 1019.03 1018.92 1018.84 1018.78
1014.88 1015.25 1015.65 1016.09 1016.56 1017.03 1017.47 1017.84 1018.11 1018.30 1018.42 1018.49 1018.58 1018.70 1018.89 1019.16 1019.49 1019.85 1020.22 1020.54 1020.80 1020.97 1021.05 1021.07 1021.03 1020.96 1020.89 1020.82 1020.76 1020.70 1020.63 1020.54 1020.42 1020.27 1020.10 1019.90 1019.70 1019.51 1019.33 1019.17 1019.03 1018.92 1018.84
1014.51 1014.91 1015.34 1015.80 1016.30 1016.81 1017.28 1017.67 1017.97 1018.18 1018.30 1018.36 1018.43 1018.53 1018.69 1018.93 1019.24 1019.61 1019.98 1020.33 1020.62 1020.84 1020.97 1021.03 1021.03 1021.00 1020.95 1020.90 1020.85 1020.80 1020.75 1020.67 1020.57 1020.43 1020.26 1020.07 1019.87 1019.66 1019.47 1019.29 1019.14 1019.01 1018.91
Thickness
5801 5796 5784 5782 5780 5779 5777 5776 5775 5773 5771 5770 5768 5766 5765 5764 5763 5762 5761 5760 5760 5759 5759 5758 5757 5757 5756 5755 5755 5754 5753 5752 5751 5750 5748 5747 5746 5744 5744 5743 5744 5743 5740
5804 5795 5783 5780 5778 5777 5775 5774 5772 5770 5769 5767 5765 5764 5762 5761 5760 5760 5759 5759 5758 5757 5757 5756 5755 5754 5754 5753 5752 5752 5751 5750 5749 5748 5747 5746 5744 5742 5742 5742 5743 5742 5739
5801 5792 5782 5778 5776 5774 5772 5771 5769 5767 5766 5764 5762 5761 5760 5759 5758 5758 5757 5756 5756 5755 5754 5753 5752 5752 5751 5750 5750 5749 5749 5748 5747 5747 5747 5749 5744 5741 5740 5740 5740 5738 5737
5799 5791 5783 5776 5774 5772 5770 5768 5767 5765 5763 5761 5760 5758 5757 5756 5756 5755 5755 5754 5754 5753 5752 5751 5750 5749 5748 5748 5747 5747 5746 5746 5745 5746 5750 5750 5746 5739 5738 5737 5737 5736 5735
5795 5789 5781 5774 5771 5769 5767 5766 5764 5762 5760 5759 5758 5756 5755 5754 5753 5753 5752 5752 5751 5750 5749 5748 5747 5746 5745 5745 5744 5744 5744 5743 5744 5747 5748 5747 5743 5737 5736 5735 5734 5734 5733
5791 5786 5778 5771 5768 5767 5765 5763 5761 5760 5758 5756 5755 5754 5752 5752 5750 5750 5749 5748 5748 5747 5746 5745 5744 5743 5742 5742 5742 5741 5741 5742 5744 5748 5746 5745 5741 5735 5734 5733 5732 5732 5731
5788 5784 5775 5769 5766 5764 5762 5760 5758 5757 5755 5753 5752 5751 5750 5749 5748 5747 5746 5745 5744 5744 5742 5741 5740 5740 5739 5738 5738 5738 5739 5740 5745 5746 5744 5743 5738 5734 5732 5731 5730 5730 5729
5786 5781 5773 5765 5763 5761 5759 5758 5756 5754 5752 5751 5749 5748 5747 5745 5745 5744 5743 5742 5741 5740 5739 5738 5737 5736 5735 5735 5735 5735 5736 5737 5742 5744 5742 5740 5734 5731 5730 5729 5728 5728 5727
5783 5779 5771 5766 5762 5758 5757 5755 5753 5751 5749 5748 5746 5745 5744 5743 5741 5740 5739 5738 5737 5736 5735 5734 5733 5732 5732 5731 5731 5731 5732 5734 5740 5741 5740 5737 5731 5729 5728 5727 5726 5725 5725
5778 5775 5770 5768 5763 5760 5756 5753 5751 5748 5746 5745 5743 5742 5740 5739 5738 5737 5737 5735 5734 5733 5732 5731 5730 5729 5728 5728 5728 5728 5729 5731 5739 5740 5738 5734 5729 5727 5726 5725 5724 5723 5723
5770 5769 5768 5765 5761 5759 5757 5752 5749 5746 5744 5742 5741 5739 5738 5741 5740 5737 5735 5733 5731 5730 5728 5728 5727 5726 5726 5726 5726 5726 5727 5733 5738 5737 5735 5730 5726 5724 5723 5722 5721 5721 5720
5761 5763 5764 5762 5758 5757 5756 5751 5749 5747 5744 5743 5742 5739 5739 5738 5736 5735 5731 5730 5728 5727 5726 5725 5725 5725 5725 5728 5726 5725 5730 5731 5734 5734 5732 5726 5723 5722 5721 5720 5719 5718 5718
5758 5759 5760 5758 5755 5755 5753 5751 5748 5746 5743 5741 5739 5737 5736 5734 5733 5732 5731 5729 5728 5726 5727 5725 5725 5726 5726 5726 5726 5727 5727 5729 5731 5732 5729 5723 5721 5720 5719 5717 5716 5716 5716
5755 5755 5757 5755 5752 5751 5750 5749 5746 5744 5741 5739 5735 5734 5733 5732 5730 5729 5727 5727 5726 5725 5724 5724 5723 5723 5722 5721 5722 5723 5724 5725 5726 5727 5724 5720 5718 5717 5716 5715 5714 5714 5713
5750 5751 5751 5750 5748 5746 5745 5744 5743 5740 5739 5735 5732 5730 5729 5729 5728 5727 5724 5723 5724 5723 5723 5721 5721 5720 5719 5719 5719 5719 5720 5721 5721 5721 5722 5718 5716 5715 5714 5713 5712 5712 5711
5747 5747 5747 5746 5744 5742 5741 5739 5738 5737 5734 5733 5730 5727 5726 5725 5724 5723 5721 5720 5720 5720 5719 5718 5718 5717 5718 5717 5717 5716 5716 5717 5716 5715 5718 5717 5714 5713 5712 5712 5711 5710 5710
5744 5744 5743 5743 5742 5740 5738 5737 5735 5734 5733 5730 5726 5723 5722 5721 5720 5720 5719 5718 5717 5716 5715 5715 5715 5716 5716 5716 5715 5715 5714 5713 5714 5713 5714 5714 5715 5713 5712 5710 5710 5709 5708
5742 5740 5740 5742 5739 5737 5735 5734 5733 5733 5730 5728 5724 5721 5718 5717 5717 5716 5716 5716 5713 5713 5714 5713 5714 5714 5714 5714 5713 5713 5713 5712 5711 5711 5713 5713 5713 5714 5712 5710 5709 5707 5706
5738 5737 5736 5737 5735 5734 5733 5732 5731 5729 5728 5725 5722 5720 5717 5715 5714 5714 5713 5711 5711 5712 5712 5712 5711 5711 5710 5710 5712 5711 5712 5712 5710 5711 5711 5712 5712 5711 5712 5709 5708 5707 5706
5736 5735 5734 5733 5732 5731 5730 5730 5729 5727 5725 5723 5721 5718 5716 5714 5713 5713 5711 5708 5710 5710 5708 5707 5706 5705 5706 5707 5710 5710 5710 5710 5710 5711 5710 5711 5710 5710 5711 5710 5708 5707 5705
5733 5733 5732 5731 5730 5729 5729 5729 5727 5725 5724 5723 5720 5717 5715 5713 5711 5710 5711 5707 5707 5707 5705 5706 5705 5705 5706 5705 5707 5707 5709 5709 5707 5706 5707 5708 5709 5708 5708 5707 5707 5706 5705
5732 5732 5731 5730 5730 5730 5730 5730 5729 5727 5726 5724 5720 5716 5714 5713 5710 5710 5707 5708 5706 5704 5702 5702 5700 5703 5704 5703 5703 5704 5703 5704 5702 5705 5704 5704 5704 5705 5706 5705 5704 5702 5703
5732 5732 5734 5732 5731 5731 5730 5730 5727 5724 5723 5722 5719 5717 5714 5712 5710 5709 5707 5707 5705 5706 5703 5700 5699 5698 5700 5701 5700 5700 5700 5700 5700 5701 5698 5699 5698 5700 5702 5701 5700 5700 5700
5737 5737 5736 5734 5732 5731 5731 5730 5727 5725 5723 5723 5721 5719 5715 5712 5710 5708 5706 5705 5704 5705 5701 5701 5699 5698 5696 5698 5697 5695 5695 5694 5692 5694 5696 5696 5695 5694 5695 5697 5697 5695 5695
5743 5741 5738 5735 5733 5732 5731 5730 5727 5726 5725 5725 5722 5717 5715 5713 5710 5709 5706 5705 5703 5703 5701 5698 5696 5695 5696 5695 5695 5694 5691 5690 5690 5688 5688 5690 5693 5693 5692 5691 5691 5691 5690
5747 5744 5741 5736 5733 5732 5731 5730 5727 5726 5724 5722 5719 5717 5715 5715 5712 5709 5707 5704 5703 5702 5699 5697 5694 5693 5692 5690 5690 5690 5689 5687 5686 5685 5684 5683 5685 5689 5687 5686 5687 5686 5686